Weather History for Alexandria, Egypt

Change the Weather History Date:

Monday, November 5, 2012

  Actual Average Record
Temperature  
Mean Temperature 72 °F -  
Max Temperature 80 °F 71 °F 93 °F (2007)
Min Temperature 64 °F 56 °F 55 °F (2001)
Cooling Degree Days 7    
Growing Degree Days 22 (Base 50)    
Moisture  
Dew Point 69 °F    
Average Humidity 82    
Maximum Humidity 94    
Minimum Humidity 69    
Precipitation  
Precipitation 0.00 in 0.04 in - ()
Sea Level Pressure  
Sea Level Pressure 30.00 in    
Wind  
Wind Speed 4 mph ()    
Max Wind Speed 10 mph    
Max Gust Speed -    
Visibility 6.2 miles    
Events      
Averages and records for this station are not official NWS values.
T = Trace of Precipitation, MM = Missing Value Source: Averaged Metar Reports

Daily Weather History Graph

Daily Weather History Graph

Search for Another Location

Airport:

Trip Planner

Search our weather history database for the weather conditions in past years. The results will help you decide how hot, cold, wet, or windy it might be!

Date:

Astronomy

Nov. 05, 2012 Rise Set
Actual Time 6:19 AM EET 5:08 PM EET
Civil Twilight 5:53 AM EET 5:33 PM EET
Nautical Twilight 5:25 AM EET 6:02 PM EET
Astronomical Twilight 4:56 AM EET 6:30 PM EET
Moon 10:26 PM EET (11/5) 11:25 AM EET (11/5)
Length of Visible Light 11h 39m
Length of Day
10h 49m
Waning Gibbous, 66% of the Moon is Illuminated
Nov 5
Waning Gibbous
Nov 7
Last Quarter
Nov 14
New
Nov 20
First Quarter
Nov 28
Full

Hourly Weather History & Observations

Time (EET) Temp. Dew Point Humidity Pressure Visibility Wind Dir Wind Speed Gust Speed Precip Events Conditions
12:00 AM 71.6 °F 68.0 °F 88% 30.01 in - NNE 4.6 mph - N/A   Clear
1:00 AM 69.8 °F 68.0 °F 94% 29.98 in - NNE 3.5 mph - N/A   Clear
2:00 AM 68 °F 66 °F 90% 29.99 in 6 mi Calm Calm - -  
2:00 AM 68.0 °F 66.2 °F 94% 29.98 in - Calm Calm - N/A   Clear
3:00 AM 71.6 °F 68.0 °F 88% 29.98 in - NE 3.5 mph - N/A   Clear
4:00 AM 71.6 °F 68.0 °F 88% 29.98 in - Calm Calm - N/A   Clear
5:00 AM 66.2 °F 64.4 °F 94% 29.98 in - Calm Calm - N/A   Clear
6:00 AM 66.2 °F 64.4 °F 94% 29.98 in - Calm Calm - N/A   Clear
7:00 AM 71.6 °F 69.8 °F 94% 30.01 in - Calm Calm - N/A   Clear
8:00 AM 76 °F 70 °F 76% 30.02 in 6 mi NNE 6.9 mph - -   Partly Cloudy
8:00 AM 75.2 °F 69.8 °F 83% 30.01 in 6.2 mi NNE 6.9 mph - N/A   Scattered Clouds
9:00 AM 77.0 °F 69.8 °F 78% 30.01 in 6.2 mi NE 4.6 mph - N/A   Mostly Cloudy
10:00 AM 78.8 °F 69.8 °F 74% 30.01 in 6.2 mi NNE 9.2 mph - N/A   Mostly Cloudy
11:00 AM 78.8 °F 69.8 °F 74% 30.01 in 6.2 mi North 10.4 mph - N/A   Mostly Cloudy
12:00 PM 78.8 °F 69.8 °F 74% 30.01 in 6.2 mi NE 8.1 mph - N/A   Mostly Cloudy
1:00 PM 78.8 °F 69.8 °F 74% 29.98 in 6.2 mi ENE 6.9 mph - N/A   Mostly Cloudy
2:00 PM 78 °F 70 °F 69% 29.98 in 6 mi NE 9.2 mph - -   Partly Cloudy
2:00 PM 78.8 °F 69.8 °F 74% 29.98 in 6.2 mi NE 6.9 mph - N/A   Mostly Cloudy
3:00 PM 78.8 °F 69.8 °F 74% 29.98 in 6.2 mi NE 6.9 mph - N/A   Mostly Cloudy
4:00 PM 78.8 °F 69.8 °F 74% 29.98 in 6.2 mi NNE 6.9 mph - N/A   Mostly Cloudy
5:00 PM 77.0 °F 69.8 °F 78% 29.98 in 6.2 mi NNE 8.1 mph - N/A   Mostly Cloudy
6:00 PM 75.2 °F 69.8 °F 83% 29.98 in 6.2 mi North 6.9 mph - N/A   Mostly Cloudy
7:00 PM 75.2 °F 69.8 °F 83% 30.01 in 6.2 mi NNE 8.1 mph - N/A   Scattered Clouds
8:00 PM 75 °F 71 °F 82% 30.04 in 6 mi NNE 6.9 mph - -   Partly Cloudy
8:00 PM 75.2 °F 69.8 °F 83% 30.04 in 6.2 mi NNE 6.9 mph - N/A   Scattered Clouds
9:00 PM 75.2 °F 69.8 °F 83% 30.04 in - NE 5.8 mph - N/A   Clear
10:00 PM 75.2 °F 69.8 °F 83% 30.04 in - NNE 5.8 mph - N/A   Clear
11:00 PM 75.2 °F 69.8 °F 83% 30.01 in - North 8.1 mph - N/A   Clear